Date String (YYYY-MM-DD hh:mm:ss) UTC,Instrument flags,Ambient pressure (hPa),Sample flow (lpm),Bypass flow (lpm),Sample temperature (°C),Ambient temperature (°C),ASC tube jacket temperature (°C),LED temperature (°C),Box temperature (°C),Sample RH (%),Span deviation,Mass concentration (μg/m³),Mass concentration (μg/m³),Mass concentration (μg/m³)
DateTimeUTC,F1_M11,P_M11,Q1_M11,Q2_M11,T1_M11,T2_M11,T3_M11,T4_M11,T5_M11,U1_M11,ZSPAN_M11,X0_M11,X2_M11,X1_M11
2022-02-10 10:00:00,,0828.4,5.01,0.00,21.7,21.2,00.0,30.7,23.5,15.7,0000.0,0004.96,0003.21,0002.78
2022-02-10 10:01:00,,0828.3,5.00,0.00,21.7,21.2,00.0,30.7,23.5,15.6,0000.0,0005.13,0003.20,0002.77
2022-02-10 10:02:00,,0828.4,5.00,0.00,21.7,21.2,00.0,30.7,23.5,15.5,0000.0,0005.28,0003.20,0002.77
2022-02-10 10:03:00,,0828.3,5.01,0.00,21.7,21.2,00.0,30.7,23.5,15.6,0000.0,0005.16,0003.18,0002.75
2022-02-10 10:04:00,,0828.4,4.99,0.00,21.7,21.2,00.0,30.7,23.5,15.6,0000.0,0004.94,0003.15,0002.73
2022-02-10 10:05:00,,0828.3,5.01,0.00,21.7,21.2,00.0,30.7,23.5,15.7,0000.0,0004.66,0003.12,0002.72
2022-02-10 10:06:00,,0828.3,5.00,0.00,21.7,21.2,00.0,30.7,23.5,15.4,0000.0,0004.73,0003.12,0002.70
2022-02-10 10:07:00,,0828.3,4.99,0.00,21.7,21.2,00.0,30.7,23.5,15.3,0000.0,0004.83,0003.13,0002.69
2022-02-10 10:08:00,,0828.3,4.99,0.00,21.7,21.2,00.0,30.7,23.5,15.3,0000.0,0004.77,0003.10,0002.66
2022-02-10 10:09:00,,0828.3,5.00,0.00,21.7,21.2,00.0,30.7,23.5,15.4,0000.0,0006.29,0003.08,0002.66
2022-02-10 10:10:00,,0828.3,5.00,0.00,21.7,21.1,00.0,30.7,23.5,15.5,0000.0,0007.45,0003.16,0002.70
2022-02-10 10:11:00,,0828.3,5.01,0.00,21.7,21.1,00.0,30.7,23.5,15.5,0000.0,0007.71,0003.26,0002.73
2022-02-10 10:12:00,,0828.2,5.00,0.00,21.7,21.1,00.0,30.7,23.5,15.7,0000.0,0007.85,0003.33,0002.77
2022-02-10 10:13:00,,0828.3,5.00,0.00,21.8,21.5,00.0,30.7,23.6,15.8,0000.0,0007.86,0003.36,0002.80
2022-02-10 10:14:00,,0828.1,5.00,0.00,21.9,22.2,00.0,30.8,23.9,15.8,0000.0,0008.00,0003.41,0002.82
2022-02-10 10:15:00,,0828.1,4.99,0.00,22.1,22.8,00.0,30.8,24.1,15.6,0000.0,0008.62,0003.47,0002.83
2022-02-10 10:16:00,,0828.1,5.01,0.00,22.1,22.7,00.0,30.9,24.1,15.6,0000.0,0009.09,0003.51,0002.86
2022-02-10 10:17:00,,0828.2,4.98,0.00,22.2,22.5,00.0,30.9,24.1,15.6,0000.0,0009.35,0003.57,0002.90
2022-02-10 10:18:00,,0828.2,5.00,0.00,22.2,22.3,00.0,30.9,24.1,15.6,0000.0,0010.13,0003.60,0002.91
2022-02-10 10:19:00,,0828.1,5.00,0.00,22.2,22.1,00.0,30.9,24.0,15.6,0000.0,0010.89,0003.69,0002.96
2022-02-10 10:20:00,,0828.1,5.00,0.00,22.2,22.0,00.0,31.0,24.0,15.6,0000.0,0010.37,0003.74,0003.00
2022-02-10 10:21:00,,0828.1,5.01,0.00,22.2,21.9,00.0,31.0,24.0,15.6,0000.0,0009.76,0003.73,0002.97
2022-02-10 10:22:00,,0828.1,4.99,0.00,22.2,21.9,00.0,31.0,24.0,15.6,0000.0,0009.66,0003.67,0002.93
2022-02-10 10:23:00,,0828.2,5.00,0.00,22.2,21.8,00.0,31.0,24.0,15.6,0000.0,0009.49,0003.62,0002.92
2022-02-10 10:24:00,,0828.1,5.01,0.00,22.2,21.7,00.0,31.0,24.0,15.6,0000.0,0009.99,0003.69,0002.93
2022-02-10 10:25:00,,0828.1,5.00,0.00,22.1,21.7,00.0,31.0,23.9,15.6,0000.0,0010.42,0003.76,0002.95
2022-02-10 10:26:00,,0828.1,5.00,0.00,22.1,21.7,00.0,31.0,23.9,15.6,0000.0,0010.66,0003.81,0002.97
2022-02-10 10:27:00,,0828.1,5.00,0.00,22.1,21.6,00.0,31.0,23.9,15.6,0000.0,0010.66,0003.86,0002.98
2022-02-10 10:28:00,,0828.0,5.01,0.00,22.1,21.6,00.0,31.0,23.9,15.6,0000.0,0011.37,0003.85,0002.97
2022-02-10 10:29:00,,0828.0,4.98,0.00,22.1,21.5,00.0,31.0,23.9,15.6,0000.0,0010.78,0003.83,0002.96
2022-02-10 10:30:00,,0827.8,5.01,0.00,22.1,21.5,00.0,31.0,23.9,15.6,0000.0,0010.90,0003.77,0002.92
2022-02-10 10:31:00,,0827.8,4.99,0.00,22.1,21.5,00.0,31.1,23.9,15.6,0000.0,0011.74,0003.75,0002.90
2022-02-10 10:32:00,,0827.8,5.01,0.00,22.1,21.5,00.0,31.1,23.9,15.6,0000.0,0011.78,0003.74,0002.89
2022-02-10 10:33:00,,0827.8,4.98,0.00,22.1,21.5,00.0,31.1,23.9,15.6,0000.0,0012.07,0003.76,0002.91
2022-02-10 10:34:00,,0827.8,5.01,0.00,22.1,21.5,00.0,31.1,23.9,15.6,0000.0,0012.24,0003.81,0002.94
2022-02-10 10:35:00,,0827.8,5.00,0.00,22.1,21.5,00.0,31.1,23.9,15.6,0000.0,0011.98,0003.80,0002.94
2022-02-10 10:36:00,,0827.8,5.00,0.00,22.1,21.4,00.0,31.0,23.8,15.6,0000.0,0012.18,0003.81,0002.95
2022-02-10 10:37:00,,0827.8,5.00,0.00,22.0,21.4,00.0,31.0,23.8,15.6,0000.0,0012.08,0003.83,0003.00
2022-02-10 10:38:00,,0827.7,4.99,0.00,22.1,21.4,00.0,31.0,23.8,15.6,0000.0,0012.04,0003.85,0003.04
2022-02-10 10:39:00,,0827.7,5.01,0.00,22.0,21.4,00.0,31.0,23.8,15.6,0000.0,0011.56,0003.90,0003.06
2022-02-10 10:40:00,,0827.7,5.00,0.00,22.0,21.4,00.0,31.0,23.8,15.6,0000.0,0012.01,0003.97,0003.09
2022-02-10 10:41:00,,0827.7,4.99,0.00,22.0,21.4,00.0,31.0,23.8,15.6,0000.0,0011.55,0004.04,0003.12
2022-02-10 10:42:00,,0827.7,5.01,0.00,22.0,21.4,00.0,31.0,23.8,15.6,0000.0,0010.60,0004.10,0003.14
2022-02-10 10:43:00,,0827.7,4.99,0.00,22.0,21.4,00.0,31.0,23.8,15.6,0000.0,0011.37,0004.17,0003.18
2022-02-10 10:44:00,,0827.7,5.01,0.00,22.0,21.4,00.0,31.0,23.8,15.6,0000.0,0011.72,0004.21,0003.19
2022-02-10 10:45:00,,0827.7,4.98,0.00,22.0,21.4,00.0,31.0,23.8,15.6,0000.0,0012.87,0004.21,0003.19
2022-02-10 10:46:00,,0827.7,5.01,0.00,22.0,21.4,00.0,31.0,23.8,15.6,0000.0,0012.97,0004.18,0003.19
2022-02-10 10:47:00,,0827.7,5.01,0.00,22.0,21.4,00.0,31.0,23.8,15.6,0000.0,0012.62,0004.11,0003.19
2022-02-10 10:48:00,,0827.7,4.99,0.00,22.0,21.4,00.0,31.0,23.9,15.6,0000.0,0012.01,0004.08,0003.19
2022-02-10 10:49:00,,0827.7,5.01,0.00,22.0,21.4,00.0,31.0,23.8,15.6,0000.0,0011.78,0004.06,0003.19
2022-02-10 10:50:00,,0827.7,5.00,0.00,22.1,21.8,00.0,31.1,24.0,15.6,0000.0,0011.50,0004.00,0003.19
2022-02-10 10:51:00,,0827.7,5.00,0.00,22.2,22.6,00.0,31.1,24.2,15.5,0000.0,0011.55,0003.96,0003.21
2022-02-10 10:52:00,,0827.7,5.01,0.00,22.4,23.0,00.0,31.1,24.4,15.3,0000.0,0011.31,0003.90,0003.21
2022-02-10 10:53:00,,0827.7,4.99,0.00,22.4,22.8,00.0,31.2,24.4,15.3,0000.0,0011.27,0003.87,0003.21
2022-02-10 10:54:00,,0827.7,5.00,0.00,22.4,22.7,00.0,31.2,24.4,15.2,0000.0,0010.89,0003.83,0003.21
2022-02-10 10:55:00,,0827.7,5.01,0.00,22.4,22.5,00.0,31.2,24.4,15.2,0000.0,0010.36,0003.77,0003.21
2022-02-10 10:56:00,,0827.7,5.00,0.00,22.4,22.3,00.0,31.2,24.3,15.2,0000.0,0009.10,0003.74,0003.21
2022-02-10 10:57:00,,0827.7,5.01,0.00,22.4,22.2,00.0,31.2,24.3,15.1,0000.0,0008.86,0003.74,0003.20
2022-02-10 10:58:00,,0827.7,4.99,0.00,22.4,22.1,00.0,31.2,24.3,15.1,0000.0,0008.82,0003.79,0003.20
2022-02-10 10:59:00,,0827.7,4.99,0.00,22.4,22.0,00.0,31.3,24.2,15.1,0000.0,0008.92,0003.82,0003.20
